Wind_Speed
14 13 14 16 15 16 18 22 24 24 25 25 24 24 24 21 21 22 20 18 22 24 22 14 7 11 13 12 6 8 6 2 19 20 19 23 19 18 9 13 8 8 4 17 20
14 15 14 14 15 16 17 16 19 21 23 23 22 22 21 19 18 20 14 20 19 21 21 18 12 9 9 10 13 10 4 14 14 29 23 25 23 21 15 15 9 5 16 18 13
16 15 15 15 14 14 16 16 15 15 18 19 20 19 16 16 14 11 21 19 17 19 20 19 20 11 11 11 17 17 15 26 20 19 13 19 22 12 19 12 10 5 18 24 17
16 17 16 14 15 14 15 15 15 15 16 17 16 15 13 13 6 9 16 18 20 21 22 20 21 16 9 4 10 12 14 16 24 23 16 12 1 9 14 17 11 5 10 22 22
18 17 17 16 14 15 14 15 15 16 16 16 12 13 12 13 13 6 15 21 23 25 24 23 23 10 6 5 7 16 17 13 22 21 12 10 17 21 28 17 13 11 11 14 19
18 18 18 17 16 15 15 14 14 16 17 15 12 12 13 8 15 16 16 23 26 29 27 26 20 6 4 10 10 8 11 15 16 12 10 8 16 21 22 19 13 13 12 12 12
19 19 18 18 16 16 15 16 12 14 17 15 12 12 12 6 13 6 11 22 27 31 30 26 16 9 5 6 5 10 17 19 11 19 13 5 16 12 17 15 16 14 12 12 9
20 20 20 19 18 16 16 15 14 12 14 15 14 11 8 16 17 13 10 23 28 31 31 26 14 9 11 8 14 15 16 17 24 21 19 4 21 13 13 13 13 10 8 9 10
21 20 20 20 20 17 16 15 14 12 9 13 14 10 5 14 19 14 16 23 27 31 32 26 10 14 14 12 15 17 20 22 23 20 14 7 21 13 16 15 9 12 14 13 9
23 21 20 20 21 17 15 14 10 9 13 12 14 8 6 9 10 17 20 23 27 31 27 18 13 20 21 18 23 23 22 23 23 20 14 12 15 19 18 16 12 16 15 14 14
23 22 20 19 20 19 14 14 8 11 10 9 15 14 7 5 5 13 22 21 26 25 21 18 21 23 23 18 19 26 27 22 14 16 16 16 21 20 19 17 17 22 21 19 15
24 22 20 18 18 18 15 12 8 14 27 19 18 23 13 11 15 14 20 27 25 26 23 22 27 28 20 18 21 26 23 28 22 29 15 21 23 20 28 22 16 22 22 19 15
24 23 20 17 18 16 12 3 2 9 27 33 27 30 19 14 23 22 30 27 28 28 29 30 26 25 24 20 23 26 22 23 26 27 18 21 27 32 14 28 27 19 23 18 20
24 24 21 18 17 14 8 15 8 10 19 30 24 32 27 17 28 20 30 33 28 30 28 27 24 28 28 32 26 25 18 15 9 30 26 31 18 35 24 27 32 24 26 19 26
24 24 21 21 14 11 12 12 10 5 5 8 15 23 31 30 23 26 26 31 28 29 31 33 30 31 30 25 21 23 19 13 22 18 26 33 16 19 24 30 31 27 27 24 27
22 23 22 22 12 18 18 18 11 4 10 9 13 27 27 28 28 23 28 33 32 25 28 27 25 30 28 23 24 18 17 17 19 23 12 15 23 16 36 35 31 30 31 30 28
21 21 24 22 9 19 17 15 13 11 8 6 22 26 27 29 29 29 36 33 39 34 34 31 34 29 26 28 26 19 20 12 4 7 10 28 29 23 30 28 23 33 34 32 32
19 22 23 20 16 21 18 19 15 18 37 12 9 21 27 27 29 31 37 37 39 36 25 30 32 33 26 30 29 26 27 10 7 4 17 27 23 20 23 24 16 22 28 24 38
20 22 23 16 20 23 25 24 24 34 30 26 21 23 26 27 28 31 37 40 37 40 37 29 33 26 29 28 28 31 32 22 25 23 16 12 26 24 16 18 22 26 22 23 40
21 22 19 15 21 25 29 39 34 39 35 26 34 26 30 31 37 33 38 40 36 39 39 31 28 33 28 24 32 30 31 23 25 2 6 12 11 5 26 27 25 22 21 21 25
19 20 5 13 19 28 37 40 36 37 28 27 32 38 35 18 32 36 37 39 35 34 37 40 31 27 29 32 32 23 30 23 26 24 7 2 4 3 25 20 16 14 13 10 27
15 10 5 11 18 28 36 36 30 32 26 29 32 30 32 24 15 40 34 42 38 34 43 39 29 33 37 33 37 34 26 27 20 11 8 11 7 13 18 19 19 18 17 18 19
13 10 22 23 20 19 19 23 29 27 28 27 30 32 35 26 24 19 30 37 34 36 45 42 40 34 27 37 36 36 34 32 25 17 17 8 4 16 18 18 18 16 13 11 11
10 8 21 22 27 21 23 29 31 24 28 28 29 27 24 25 24 26 22 15 38 40 25 40 38 26 24 23 37 36 34 27 30 25 24 24 17 22 21 19 13 18 16 6 11
10 11 15 16 23 29 25 28 32 32 29 23 29 33 21 21 21 28 24 25 25 39 32 37 43 36 26 22 18 26 32 32 29 29 25 18 28 31 23 21 21 18 10 15 11
15 21 20 25 16 14 17 21 32 28 26 29 22 29 24 25 7 6 5 2 5 37 44 37 34 31 26 26 23 21 19 35 30 30 34 31 27 26 29 32 28 28 26 30 24
18 20 20 29 18 13 10 21 19 28 33 28 18 26 30 22 14 18 6 1 5 9 25 49 42 32 21 22 16 19 18 19 22 36 33 32 25 23 28 24 16 21 24 20 17
Wind_Direction
312 312 315 316 303 303 294 277 274 275 279 283 287 289 287 278 267 253 239 227 223 218 221 227 204 166 204 215 2 305 332 270 124 143 117 115 114 115 101 71 58 32 83 125 129
311 312 311 314 307 304 307 292 281 279 282 287 292 291 287 276 264 248 232 223 210 208 214 206 199 173 220 243 228 263 40 140 127 134 132 138 136 132 120 130 167 208 140 143 155
306 309 310 310 310 298 309 301 289 285 287 292 297 292 286 276 263 235 222 209 192 189 192 195 180 172 221 255 261 209 219 114 127 141 149 128 157 144 139 177 225 171 150 154 171
302 305 308 307 310 298 303 304 293 292 294 297 297 288 279 267 235 217 211 203 185 185 184 182 190 186 228 278 133 119 88 96 124 137 114 110 104 167 149 157 215 185 160 155 166
303 301 304 304 304 302 295 305 295 297 299 300 292 283 275 260 230 185 193 193 187 185 181 179 190 182 212 4 123 122 119 102 110 116 101 74 71 135 151 163 199 183 171 166 167
303 301 301 302 299 302 290 299 294 298 302 297 288 279 278 263 208 205 192 191 183 183 182 180 179 160 295 332 153 136 152 133 124 120 99 73 90 144 155 169 200 184 177 175 173
301 301 299 299 297 297 291 292 283 293 303 293 285 283 277 180 214 183 197 191 184 181 186 186 172 216 264 313 143 169 133 133 140 136 138 114 118 141 160 189 180 183 183 176 188
298 297 298 297 297 294 292 282 283 286 302 291 282 287 287 206 190 191 192 184 183 182 184 189 189 257 265 236 159 172 166 160 161 143 141 134 147 168 176 177 170 174 170 176 204
293 294 295 296 295 293 292 275 282 286 297 292 278 296 229 204 217 213 186 182 182 183 178 176 200 263 232 230 194 180 191 177 166 191 185 216 154 169 171 171 169 165 178 199 227
291 290 292 293 294 292 289 274 273 281 305 298 277 268 119 345 235 207 190 178 182 179 164 181 228 243 231 234 203 191 210 170 183 187 220 200 183 164 170 179 176 174 200 227 236
288 287 286 289 292 292 284 275 254 297 261 271 265 229 193 89 256 217 188 174 177 171 191 183 219 225 210 210 217 210 194 184 217 195 228 177 179 168 177 186 185 195 211 220 234
287 284 282 282 285 287 286 278 265 272 277 248 233 232 214 176 217 220 177 184 186 199 196 197 218 198 195 226 231 224 208 210 213 199 216 181 186 164 180 195 237 210 216 203 202
287 284 279 274 277 280 286 291 277 310 297 270 236 213 196 189 209 214 182 188 194 196 199 205 220 199 224 237 230 239 244 221 188 182 201 184 180 184 205 204 212 238 229 208 213
285 282 277 267 268 273 245 215 213 267 284 287 239 216 188 190 204 212 194 188 201 205 199 215 209 218 233 243 231 240 246 239 223 170 187 187 189 207 216 190 205 217 219 218 217
283 281 275 267 254 263 218 227 229 261 284 332 206 203 195 185 191 207 197 191 199 206 205 216 213 219 230 236 228 231 234 250 243 254 218 206 208 230 198 188 205 217 220 220 225
278 279 271 265 243 238 235 230 237 218 250 308 161 188 183 189 202 200 203 199 201 208 214 218 221 220 224 236 234 233 234 232 251 257 265 246 216 211 191 197 199 206 216 225 227
278 273 269 253 229 238 237 225 229 225 263 248 152 175 186 194 204 202 198 202 209 217 220 219 225 226 229 225 229 232 216 229 248 233 236 253 254 253 211 213 223 197 216 219 223
281 273 262 256 226 230 224 210 221 233 233 168 290 186 188 198 206 209 202 205 214 218 224 221 228 224 214 214 214 215 216 209 203 197 241 249 252 232 217 209 222 214 220 234 216
283 273 268 251 233 224 220 213 220 224 240 255 275 281 200 203 208 207 213 206 217 215 225 215 232 224 226 207 209 212 217 216 241 247 263 284 205 248 212 216 195 206 216 207 212
287 277 280 242 226 223 221 229 237 237 244 268 281 284 292 204 208 202 214 211 211 219 217 230 221 227 221 207 215 225 208 217 248 229 285 265 215 184 174 169 190 202 213 209 203
293 290 232 228 222 219 224 232 242 242 244 252 267 280 285 275 208 208 217 211 214 214 221 231 240 233 225 201 216 216 199 213 231 241 209 266 90 105 176 168 185 200 207 199 207
288 281 152 262 232 226 232 237 248 256 254 259 263 268 280 281 275 212 224 211 211 210 223 228 236 250 204 206 210 217 214 219 232 240 281 277 254 209 215 189 174 175 193 197 208
277 243 175 188 239 243 263 266 251 258 258 252 268 262 278 264 282 265 235 221 213 214 218 223 230 244 245 209 209 210 218 227 220 234 262 260 121 170 170 179 189 180 194 200 214
284 227 204 211 230 247 255 258 261 264 261 255 256 269 265 262 264 273 274 248 218 212 219 219 230 232 231 229 203 206 212 223 213 220 235 249 168 162 161 171 189 185 190 211 207
268 221 227 202 219 235 244 255 261 258 248 259 262 259 260 282 268 270 274 263 236 207 211 216 230 235 234 234 228 220 216 221 237 239 234 233 198 193 214 197 184 167 238 234 224
252 249 232 224 229 240 253 265 266 243 262 256 267 252 244 271 272 263 301 284 260 210 210 212 219 225 220 227 240 244 237 229 237 244 243 257 256 244 251 217 225 246 227 227 249
262 269 264 230 241 248 271 287 290 264 262 255 267 229 231 252 252 247 271 196 264 330 222 209 212 208 209 225 240 265 264 238 253 232 233 245 260 242 225 205 201 201 209 228 251
Height
3175 3174 3172 3170 3168 3166 3164 3164 3164 3163 3162 3161 3160 3159 3157 3158 3158 3158 3161 3166 3168 3172 3175 3178 3181 3183 3182 3182 3187 3188 3185 3191 3187 3187 3186 3187 3189 3191 3190 3192 3194 3195 3196 3196 3196
3172 3171 3169 3167 3165 3164 3161 3160 3159 3159 3158 3158 3156 3154 3152 3152 3152 3154 3159 3160 3165 3169 3172 3176 3178 3180 3180 3181 3185 3186 3182 3181 3187 3187 3183 3186 3189 3191 3193 3194 3195 3197 3199 3199 3200
3168 3167 3166 3165 3163 3161 3159 3157 3156 3155 3154 3153 3152 3149 3148 3147 3148 3150 3150 3156 3162 3166 3170 3174 3176 3176 3177 3179 3185 3186 3183 3185 3187 3191 3189 3186 3190 3195 3196 3197 3195 3197 3198 3200 3202
3165 3164 3162 3161 3160 3158 3157 3155 3153 3152 3151 3149 3148 3146 3144 3145 3147 3146 3149 3155 3160 3163 3167 3173 3176 3176 3174 3176 3183 3189 3185 3183 3183 3186 3190 3190 3191 3190 3194 3196 3197 3199 3201 3202 3204
3162 3161 3159 3157 3156 3155 3153 3152 3151 3150 3148 3146 3144 3143 3142 3142 3144 3145 3147 3152 3157 3161 3166 3170 3173 3173 3173 3179 3183 3186 3187 3187 3185 3186 3187 3188 3189 3190 3193 3196 3198 3200 3201 3203 3204
3159 3158 3156 3155 3153 3152 3150 3149 3148 3147 3145 3143 3141 3140 3139 3141 3140 3144 3146 3149 3154 3160 3164 3168 3171 3172 3175 3177 3183 3186 3187 3186 3189 3188 3189 3190 3193 3195 3196 3196 3198 3199 3201 3203 3204
3156 3154 3153 3152 3150 3149 3147 3146 3144 3143 3143 3140 3139 3137 3137 3140 3138 3140 3144 3148 3153 3158 3163 3167 3171 3171 3172 3177 3180 3185 3187 3188 3188 3186 3187 3187 3195 3196 3196 3197 3199 3200 3201 3203 3204
3153 3151 3149 3148 3147 3146 3144 3143 3142 3140 3139 3138 3136 3134 3134 3135 3135 3138 3141 3146 3150 3155 3162 3166 3170 3169 3170 3175 3179 3183 3185 3186 3186 3186 3189 3187 3193 3196 3196 3197 3198 3201 3202 3203 3205
3148 3147 3146 3144 3143 3142 3141 3139 3139 3138 3136 3135 3134 3133 3133 3133 3135 3138 3140 3144 3149 3155 3160 3165 3166 3168 3169 3172 3177 3178 3181 3182 3187 3188 3188 3188 3191 3192 3195 3197 3199 3200 3202 3203 3204
3143 3142 3142 3141 3139 3139 3138 3136 3136 3136 3134 3132 3132 3133 3133 3134 3134 3136 3139 3143 3148 3154 3158 3161 3164 3165 3166 3168 3170 3174 3178 3179 3182 3187 3188 3188 3190 3192 3196 3198 3199 3200 3202 3203 3203
3138 3137 3137 3137 3135 3134 3136 3134 3136 3133 3129 3128 3129 3127 3127 3131 3134 3134 3138 3142 3148 3151 3154 3159 3162 3160 3162 3164 3167 3171 3174 3178 3186 3184 3186 3187 3189 3192 3197 3200 3201 3201 3200 3200 3201
3132 3132 3132 3132 3132 3131 3132 3132 3133 3131 3121 3122 3121 3121 3121 3126 3134 3133 3137 3141 3144 3147 3153 3158 3157 3158 3160 3163 3166 3167 3171 3171 3174 3179 3180 3185 3189 3193 3194 3199 3198 3199 3198 3197 3199
3127 3126 3127 3127 3127 3128 3129 3130 3128 3127 3119 3109 3112 3114 3117 3122 3127 3130 3134 3138 3142 3146 3148 3152 3156 3157 3158 3159 3164 3164 3168 3169 3169 3175 3179 3183 3189 3187 3182 3189 3193 3193 3196 3198 3196
3122 3121 3121 3122 3125 3125 3126 3123 3122 3122 3116 3100 3101 3104 3111 3116 3123 3127 3130 3136 3141 3143 3148 3151 3154 3154 3156 3158 3161 3161 3164 3165 3169 3166 3179 3174 3179 3181 3180 3183 3187 3188 3191 3193 3194
3115 3116 3116 3114 3119 3121 3123 3121 3122 3122 3119 3095 3092 3100 3106 3109 3121 3123 3128 3133 3135 3139 3144 3145 3147 3150 3151 3153 3157 3160 3162 3164 3165 3168 3167 3167 3169 3168 3177 3179 3184 3188 3188 3190 3190
3109 3110 3111 3110 3114 3113 3116 3119 3121 3122 3109 3094 3091 3097 3104 3110 3115 3121 3124 3130 3133 3138 3140 3142 3144 3146 3149 3151 3153 3158 3159 3161 3162 3162 3160 3161 3164 3164 3167 3169 3175 3175 3184 3185 3185
3103 3103 3103 3105 3111 3108 3112 3115 3119 3113 3102 3093 3093 3096 3101 3107 3112 3115 3119 3123 3123 3130 3132 3137 3137 3141 3145 3147 3150 3153 3156 3158 3160 3160 3157 3157 3159 3158 3160 3165 3167 3170 3175 3179 3179
3097 3095 3096 3100 3104 3103 3107 3110 3108 3102 3095 3087 3096 3098 3099 3104 3108 3111 3115 3117 3121 3125 3130 3130 3132 3133 3137 3141 3145 3148 3152 3153 3160 3159 3154 3151 3152 3150 3153 3157 3163 3168 3172 3176 3177
3089 3089 3088 3095 3095 3097 3101 3099 3094 3093 3089 3093 3094 3098 3098 3099 3104 3107 3109 3111 3116 3119 3123 3126 3128 3129 3133 3136 3141 3144 3145 3151 3151 3151 3151 3146 3142 3147 3149 3154 3159 3164 3167 3169 3173
3082 3081 3084 3086 3088 3090 3092 3086 3087 3085 3087 3093 3092 3091 3094 3092 3097 3099 3102 3106 3111 3115 3118 3120 3126 3124 3129 3133 3135 3138 3144 3148 3147 3151 3153 3145 3143 3143 3145 3148 3156 3160 3162 3164 3166
3077 3077 3080 3079 3081 3082 3079 3078 3082 3082 3087 3090 3086 3082 3084 3088 3087 3091 3095 3101 3105 3110 3112 3114 3121 3119 3124 3124 3129 3133 3135 3140 3144 3145 3146 3147 3146 3144 3145 3149 3152 3156 3157 3160 3165
3073 3076 3076 3075 3076 3074 3073 3076 3079 3078 3083 3081 3084 3082 3080 3082 3082 3082 3086 3090 3098 3103 3104 3106 3113 3113 3115 3119 3124 3128 3130 3135 3136 3139 3139 3140 3141 3139 3145 3147 3150 3153 3157 3161 3165
3068 3071 3073 3073 3070 3072 3073 3073 3073 3076 3077 3077 3077 3076 3075 3077 3078 3077 3081 3086 3090 3094 3094 3101 3106 3110 3113 3115 3116 3120 3125 3128 3131 3135 3136 3139 3141 3142 3143 3147 3149 3152 3155 3159 3162
3065 3066 3069 3068 3069 3070 3071 3069 3069 3071 3071 3071 3071 3073 3071 3072 3073 3072 3073 3077 3081 3084 3088 3095 3098 3100 3103 3105 3112 3116 3119 3123 3125 3128 3131 3134 3138 3139 3141 3145 3149 3147 3153 3156 3157
3061 3060 3059 3059 3062 3063 3064 3065 3062 3061 3067 3068 3068 3066 3069 3068 3069 3069 3069 3067 3069 3075 3081 3087 3089 3094 3098 3101 3104 3109 3114 3117 3120 3124 3126 3130 3129 3131 3135 3138 3142 3143 3151 3152 3152
3056 3053 3055 3055 3057 3059 3060 3061 3058 3055 3061 3060 3060 3062 3064 3066 3065 3062 3062 3063 3065 3071 3072 3078 3082 3088 3091 3096 3101 3106 3110 3115 3116 3119 3120 3122 3125 3123 3127 3128 3131 3137 3142 3144 3148
3053 3050 3049 3050 3053 3055 3055 3053 3053 3053 3051 3055 3056 3058 3060 3062 3065 3060 3061 3062 3063 3063 3065 3070 3075 3080 3085 3091 3096 3100 3104 3108 3112 3111 3112 3115 3116 3116 3119 3124 3128 3133 3136 3140 3142